605  
FPUS82 KCHS 190527  
OPUCHS  
 
TEST   
..KCHS/KSAV GATEWAY OBSERVATIONS
 
TEST  
NATIONAL WEATHER SERVICE CHARLESTON SC  
100 AM EDT TUE MAR 19 2019  
 
NOTE: "FAIR" INDICATES FEW OR NO CLOUDS BELOW 12,000 FEET WITH NO  
SIGNIFICANT WEATHER AND/OR OBSTRUCTIONS TO VISIBILITY.  
 
SCZ050-WAZ558-NCZ071-TXZ119-213-PAZ071-DCZ001-FLZ074-172-MI076-  
NYZ176-178-MAZ016-IL014-TNZ027-NJZ106-GAZ044-MD014-190600-  
   
..GATEWAY OBSERVATIONS FOR CHARLESTON INTERNATIONAL
 
 
 
CITY SKY/WX TMP DP RH WIND PRES REMARKS  
CHAS AIRPORT MOCLDY 52 25 35 NE10 30.23S  
SEATTLE CLEAR 66 25 21 E16G28 30.10R  
CHARLOTTE MOCLDY 43 16 33 N9 30.35R  
DALLAS DFW MOCLDY 56 34 43 CALM 30.24S  
DALLAS LOVE MOCLDY 55 40 56 E6 30.26S  
PHILLADELPHIA FAIR 37 23 56 SW7 30.36S WCI 32  
WASH NATIONAL FAIR 41 29 62 CALM 30.40R  
BALTIMORE FAIR 33 27 78 CALM 30.38R  
MIAMI CLOUDY 70 66 87 N6 30.03S  
DETROIT MOCLDY 33 19 56 SW7 30.37R WCI 27  
NEWARK FAIR 36 21 54 W3 30.34R  
LAGUARDIA FAIR 40 25 55 S3 30.34R  
J F K FAIR 34 29 82 SW7 30.35S WCI 28  
BOSTON LOGAN FAIR 37 10 32 W7 30.30F WCI 32  
FT. LAUDERDALE CLOUDY 70 66 87 N9 30.02F  
CHICAGO O'HARE MOCLDY 34 25 69 SW6 30.36S WCI 29  
CHICAGO MIDWAY MOCLDY 36 24 62 SW6 30.38R WCI 31  
HOUSTON BUSH PTCLDY 52 43 71 CALM 30.27F  
HOUSTON HOBBY MOCLDY 57 43 59 CALM 30.27S  
NASHVILLE FAIR 41 22 46 NE3 30.40S  
ATLANTA CLOUDY 47 15 27 N10 30.30F  
 

 
 
GAZ044-118-TXZ119-213-NCZ071-DCZ001-MDZ014-506-PAZ021-071-NJZ106-  
NYZ176-178-MAZ106-OHZ011-021-055-MIZ076-KYZ091-ILZ014-INZ047-  
MNZ060-ONZ431-190600-  
   
..GATEWAY OBSERVATIONS FOR SAVANNAH INTERNATIONAL
 
 
 
CITY SKY/WX TMP DP RH WIND PRES REMARKS  
SAVANNAH ARPT FAIR 56 33 42 NE14G23 30.21S  
ATLANTA CLOUDY 47 15 27 N10 30.30F  
CHARLOTTE MOCLDY 43 16 33 N9 30.35R  
DALLAS DFW MOCLDY 56 34 43 CALM 30.24S  
HOUSTON BUSH PTCLDY 52 43 71 CALM 30.27F  
WASH NATIONAL FAIR 41 29 62 CALM 30.40R  
WASH DULLES FAIR 36 17 46 NW5 30.39R WCI 32  
BALTIMORE FAIR 33 27 78 CALM 30.38R  
PHILADELPHIA FAIR 37 23 56 SW7 30.36S WCI 32  
NEWARK FAIR 36 21 54 W3 30.34R  
LAGUARDIA FAIR 40 25 55 S3 30.34R  
J F K FAIR 34 29 82 SW7 30.35S WCI 28  
BOSTON FAIR 37 10 32 W7 30.30F WCI 32  
PITTSBURG CLOUDY 32 23 69 CALM 30.38R  
AKRON FAIR 30 22 72 SW3 30.38S  
CLEVELAND FAIR 27 21 78 S5 30.41S WCI 22  
CINCINNATI MOCLDY 35 23 61 N8 30.39S WCI 29  
COLUMBUS CLOUDY 32 24 71 SW3 30.41R  
DETROIT MOCLDY 33 19 56 SW7 30.37R WCI 27  
CHICAGO O'HARE MOCLDY 34 25 69 SW6 30.36S WCI 29  
MINNEAPOLIS MOCLDY 33 26 75 SW5 30.29S WCI 29  
INDIANAPOLIS FAIR 33 25 72 CALM 30.41S  
TORONTO CANADA FLURRIES 28 19 69 W9 30.33R WCI 20  
 

 
 
 
CLICK HERE TO GO TO PREVIOUS BULLETINS.

The Nexlab SC Page
The Nexlab GA Page Main Text Page